210015843,2009-12-27T23:45:41.348,-1877.10, 8617302,  27.24,  21.49, 2575160, 2575187, 2574948, 2575121, 2575188,     168,    0.83,   0.479,    1.96,   26.30,    0.16
210015844,2009-12-27T23:45:43.348,-1875.10, 8606779,  27.21,  21.49, 2575145, 2575105, 2574909, 2575078, 2575173,     173,    1.24,   0.464,    4.92,   27.93,    0.03
210015845,2009-12-27T23:45:45.077,-1873.37, 8597546,  27.18,  21.49, 2575169, 2575117, 2574951, 2575116, 2575197,     161,    1.33,   0.444,    5.19,   26.54,    0.02
210015846,2009-12-27T23:45:46.806,-1871.64, 8588312,  27.16,  21.50, 2575171, 2575168, 2574975, 2575137, 2575199,     160,    1.34,   0.429,    6.29,   27.76,    0.04
210015847,2009-12-27T23:45:48.535,-1869.92, 8579318,  27.14,  21.52, 2575166, 2575177, 2574936, 2575095, 2575194,     180,    0.92,   0.417,    4.51,   26.16,    0.16
210015848,2009-12-27T23:45:50.264,-1868.19, 8570055,  27.12,  21.55, 2575169, 2575063, 2574936, 2575090, 2575198,     156,    1.30,   0.393,    4.43,   25.79,    0.07
210015849,2009-12-27T23:45:51.993,-1866.46, 8560881,  27.11,  21.58, 2575166, 2575128, 2574957, 2575106, 2575195,     135,    0.89,   0.365,    4.90,   26.78,    0.06
210015850,2009-12-27T23:45:53.722,-1864.73, 8551587,  27.11,  21.62, 2575156, 2575156, 2574954, 2575099, 2575185,     173,    1.10,   0.343,    3.91,   25.88,    0.02
210015851,2009-12-27T23:45:55.451,-1863.00, 8542354,  27.11,  21.65, 2575154, 2575132, 2574970, 2575113, 2575184,     143,    1.45,   0.330,    6.09,   28.18,    0.05
210015852,2009-12-27T23:45:57.180,-1861.27, 8533150,  27.12,  21.67, 2575153, 2575096, 2574930, 2575072, 2575183,     145,    0.40,   0.320,    2.37,   23.20,    0.28
210015853,2009-12-27T23:45:58.909,-1859.54, 8524066,  27.12,  21.70, 2575152, 2575086, 2574973, 2575113, 2575183,     115,    1.30,   0.311,    5.23,   26.85,    0.02
210015854,2009-12-27T23:46:00.638,-1857.81, 8514893,  27.12,  21.73, 2575168, 2575009, 2574946, 2575085, 2575198,     147,    0.62,   0.306,    3.48,   24.98,    0.38
210015855,2009-12-27T23:46:02.367,-1856.08, 8505569,  27.14,  21.75, 2575154, 2575174, 2575022, 2575161, 2575184,     131,    1.77,   0.309,    7.28,   31.59,    0.13
210015856,2009-12-27T23:46:04.348,-1854.10, 8495076,  27.15,  21.78, 2575159, 2575142, 2574991, 2575130, 2575189,     131,    1.37,   0.306,    5.12,   26.28,    0.05
210015857,2009-12-27T23:46:06.077,-1852.37, 8485873,  27.15,  21.81, 2575147, 2575156, 2575003, 2575141, 2575177,     130,    1.68,   0.301,    6.48,   29.79,    0.12
210015858,2009-12-27T23:46:07.806,-1850.64, 8476849,  27.17,  21.82, 2575150, 2575081, 2574929, 2575068, 2575180,     134,    0.82,   0.316,    4.57,   24.78,    0.11
210015859,2009-12-27T23:46:09.535,-1848.92, 8467496,  27.18,  21.84, 2575147, 2575157, 2574948, 2575090, 2575177,     147,    0.69,   0.328,    3.85,   25.39,    0.21
210015860,2009-12-27T23:46:11.264,-1847.19, 8458382,  27.20,  21.86, 2575159, 2575162, 2575004, 2575148, 2575189,     120,    1.20,   0.345,    6.11,   27.88,    0.03
210015861,2009-12-27T23:46:12.993,-1845.46, 8449238,  27.22,  21.88, 2575150, 2575131, 2574995, 2575141, 2575179,     127,    2.20,   0.361,    6.92,   29.12,    0.16
210015862,2009-12-27T23:46:14.722,-1843.73, 8440005,  27.24,  21.91, 2575142, 2575130, 2574943, 2575091, 2575170,     160,    1.10,   0.376,    4.85,   26.35,    0.08
210015863,2009-12-27T23:46:16.451,-1842.00, 8430801,  27.25,  21.92, 2575156, 2575163, 2574990, 2575141, 2575185,     142,    1.38,   0.390,    7.26,   28.77,    0.08
210015864,2009-12-27T23:46:18.180,-1840.27, 8421627,  27.26,  21.92, 2575164, 2575119, 2574932, 2575085, 2575192,     153,    0.70,   0.403,    4.95,   26.84,    0.11
210015865,2009-12-27T23:46:19.909,-1838.54, 8412394,  27.27,  21.92, 2575158, 2575187, 2575002, 2575159, 2575186,     137,    1.00,   0.423,    7.87,   32.21,    0.06
210015866,2009-12-27T23:46:21.638,-1836.81, 8403220,  27.28,  21.93, 2575160, 2575194, 2574994, 2575153, 2575188,     152,    1.16,   0.439,    7.14,   31.19,    0.02
210015867,2009-12-27T23:46:23.367,-1835.08, 8394046,  27.29,  21.94, 2575156, 2575176, 2574990, 2575151, 2575183,     139,    1.03,   0.446,    5.52,   27.53,    0.02
210015868,2009-12-27T23:46:25.348,-1833.10, 8383584,  27.30,  21.95, 2575158, 2575149, 2575006, 2575171, 2575185,     131,    1.88,   0.466,    8.22,   31.86,    0.17
210015869,2009-12-27T23:46:27.077,-1831.37, 8374500,  27.31,  21.95, 2575177, 2574989, 2574874, 2575042, 2575204,     154,    0.51,   0.480,    2.49,   22.85,    0.27
210015870,2009-12-27T23:46:28.806,-1829.64, 8365206,  27.31,  21.96, 2575145, 2575141, 2574921, 2575091, 2575172,     160,    0.86,   0.491,    4.67,   25.22,    0.10
210015871,2009-12-27T23:46:30.535,-1827.92, 8356063,  27.32,  21.97, 2575181, 2575144, 2574948, 2575122, 2575208,     154,    1.19,   0.506,    6.37,   28.59,    0.02
210015872,2009-12-27T23:46:32.264,-1826.19, 8346829,  27.33,  21.97, 2575173, 2575163, 2574946, 2575124, 2575200,     167,    1.14,   0.522,    4.84,   25.21,    0.06
210015873,2009-12-27T23:46:33.993,-1824.46, 8337715,  27.33,  21.99, 2575158, 2575122, 2574922, 2575098, 2575185,     163,    1.13,   0.515,    5.78,   27.14,    0.01
210015874,2009-12-27T23:46:35.722,-1822.73, 8328602,  27.31,  22.00, 2575181, 2575123, 2574948, 2575122, 2575208,     149,    1.29,   0.509,    6.12,   28.09,    0.07
210015875,2009-12-27T23:46:37.451,-1821.00, 8319368,  27.31,  22.01, 2575175, 2575133, 2574925, 2575098, 2575202,     171,    0.99,   0.507,    4.68,   25.79,    0.03
210015876,2009-12-27T23:46:39.180,-1819.27, 8310284,  27.30,  22.03, 2575155, 2575144, 2574938, 2575109, 2575182,     160,    0.98,   0.499,    4.73,   26.50,    0.05
210015877,2009-12-27T23:46:40.909,-1817.54, 8300991,  27.30,  22.04, 2575151, 2575178, 2574995, 2575165, 2575178,     161,    1.72,   0.496,    6.60,   30.78,    0.14
210015878,2009-12-27T23:46:42.638,-1815.81, 8291847,  27.29,  22.05, 2575170, 2575153, 2574987, 2575156, 2575197,     158,    1.61,   0.493,    6.95,   28.34,    0.07
210015879,2009-12-27T23:46:44.367,-1814.08, 8282674,  27.27,  22.06, 2575167, 2575137, 2574941, 2575107, 2575194,     155,    1.29,   0.482,    6.72,   29.12,    0.01
210015880,2009-12-27T23:46:46.347,-1812.10, 8272151,  27.26,  22.07, 2575154, 2575176, 2575004, 2575170, 2575181,     158,    2.08,   0.480,    7.26,   30.36,    0.15
210015881,2009-12-27T23:46:48.076,-1810.37, 8263157,  27.26,  22.09, 2575235, 2575162, 2574940, 2575106, 2575262,     181,    1.01,   0.480,    4.44,   25.12,    0.18
210015882,2009-12-27T23:46:49.805,-1808.65, 8253804,  27.25,  22.11, 2575175, 2575171, 2574981, 2575144, 2575202,     167,    1.53,   0.469,    6.45,   28.47,    0.07
210015883,2009-12-27T23:46:51.534,-1806.92, 8244750,  27.24,  22.11, 2575161, 2575072, 2574900, 2575064, 2575188,     183,    1.02,   0.473,    2.71,   23.73,    0.20
210015884,2009-12-27T23:46:53.263,-1805.19, 8235456,  27.23,  22.12, 2575200, 2575187, 2575004, 2575167, 2575227,     150,    1.63,   0.470,    7.14,   31.16,    0.09
210015885,2009-12-27T23:46:54.992,-1803.46, 8226373,  27.22,  22.14, 2575254, 2575174, 2574942, 2575103, 2575281,     199,    1.04,   0.463,    3.37,   24.71,    0.18
210015886,2009-12-27T23:46:56.721,-1801.73, 8217289,  27.21,  22.15, 2575310, 2575105, 2574954, 2575114, 2575337,     152,    1.31,   0.459,    5.75,   27.86,    0.05
210015887,2009-12-27T23:46:58.450,-1800.00, 8208025,  27.21,  22.17, 2575194, 2575123, 2574927, 2575086, 2575221,     151,    0.57,   0.455,    4.52,   25.58,    0.20
210015888,2009-12-27T23:47:00.179,-1798.27, 8198912,  27.21,  22.20, 2575333, 2575152, 2574972, 2575129, 2575360,     152,    1.23,   0.448,    6.25,   27.22,    0.00
210015889,2009-12-27T23:47:01.908,-1796.54, 8189768,  27.21,  22.21, 2575241, 2575128, 2574988, 2575146, 2575268,     126,    1.47,   0.450,    6.67,   27.39,    0.06
210015890,2009-12-27T23:47:03.637,-1794.81, 8180594,  27.20,  22.24, 2575233, 2575140, 2574997, 2575152, 2575260,     135,    1.43,   0.439,    6.59,   30.15,    0.04
210015891,2009-12-27T23:47:05.366,-1793.08, 8171391,  27.20,  22.26, 2575322, 2575126, 2574968, 2575121, 2575349,     135,    1.05,   0.430,    5.98,   28.46,    0.02
210015892,2009-12-27T23:47:07.347,-1791.10, 8160898,  27.20,  22.28, 2575203, 2575143, 2574994, 2575147, 2575230,     139,    2.12,   0.427,    8.63,   31.51,    0.13
210015893,2009-12-27T23:47:09.076,-1789.37, 8151724,  27.19,  22.30, 2575190, 2575136, 2574986, 2575136, 2575216,     132,    2.06,   0.419,    8.02,   31.52,    0.14
210015894,2009-12-27T23:47:10.805,-1787.65, 8142670,  27.19,  22.32, 2575214, 2575099, 2574977, 2575126, 2575241,     128,    1.27,   0.413,    7.86,   29.99,    0.04
210015895,2009-12-27T23:47:12.534,-1785.92, 8133377,  27.19,  22.34, 2575210, 2575171, 2574980, 2575129, 2575237,     163,    1.44,   0.412,    6.12,   29.54,    0.01
210015896,2009-12-27T23:47:14.263,-1784.19, 8124323,  27.19,  22.36, 2575221, 2575053, 2574953, 2575101, 2575248,     132,    0.94,   0.407,    5.38,   26.22,    0.16
210015897,2009-12-27T23:47:15.992,-1782.46, 8115179,  27.19,  22.39, 2575196, 2575086, 2574930, 2575075, 2575223,     170,    1.19,   0.395,    5.45,   27.20,    0.09
210015898,2009-12-27T23:47:17.721,-1780.73, 8105946,  27.17,  22.41, 2575224, 2574932, 2574907, 2575051, 2575251,     135,    0.11,   0.386,    4.05,   26.49,    0.40
210015899,2009-12-27T23:47:19.450,-1779.00, 8096772,  27.17,  22.43, 2575283, 2575177, 2575022, 2575164, 2575310,     143,    1.60,   0.383,    8.09,   31.28,    0.12
210015900,2009-12-27T23:47:21.179,-1777.27, 8087718,  27.16,  22.45, 2575358, 2575060, 2574939, 2575080, 2575385,     131,    0.59,   0.371,    5.66,   27.55,    0.01
210015901,2009-12-27T23:47:22.908,-1775.54, 8078455,  27.16,  22.47, 2575238, 2575166, 2575013, 2575152, 2575266,     137,    1.49,   0.366,    7.95,   31.55,    0.13
210015902,2009-12-27T23:47:24.637,-1773.81, 8069341,  27.15,  22.49, 2575210, 2575130, 2574966, 2575105, 2575237,     129,    0.95,   0.365,    7.03,   28.50,    0.03
210015903,2009-12-27T23:47:26.366,-1772.08, 8060168,  27.15,  22.51, 2575160, 2575157, 2574994, 2575132, 2575187,     137,    1.58,   0.356,    7.46,   30.06,    0.09
210015904,2009-12-27T23:47:28.347,-1770.10, 8049735,  27.14,  22.53, 2575286, 2575130, 2574992, 2575128, 2575313,     124,    1.07,   0.349,    7.52,   29.66,    0.13
210015905,2009-12-27T23:47:30.076,-1768.37, 8040561,  27.13,  22.55, 2575185, 2575153, 2575029, 2575164, 2575213,     109,    1.53,   0.343,    8.40,   31.00,    0.19
210015906,2009-12-27T23:47:31.805,-1766.65, 8031417,  27.11,  22.57, 2575227, 2575137, 2574954, 2575087, 2575255,     164,    0.79,   0.332,    6.81,   27.48,    0.00
210015907,2009-12-27T23:47:33.534,-1764.92, 8022364,  27.11,  22.60, 2575158, 2575155, 2574970, 2575102, 2575186,     149,    0.83,   0.324,    6.66,   28.99,    0.01
210015908,2009-12-27T23:47:35.263,-1763.19, 8013130,  27.12,  22.62, 2575173, 2575124, 2574987, 2575118, 2575200,     135,    1.54,   0.320,    6.31,   29.39,    0.14
210015909,2009-12-27T23:47:36.992,-1761.46, 8003986,  27.12,  22.65, 2575300, 2575142, 2575036, 2575165, 2575328,     107,    2.29,   0.310,    8.83,   32.07,    0.24
210015910,2009-12-27T23:47:38.721,-1759.73, 7994843,  27.12,  22.68, 2575159, 2575140, 2575000, 2575127, 2575187,     128,    1.57,   0.296,    7.27,   30.78,    0.15
210015911,2009-12-27T23:47:40.450,-1758.00, 7985759,  27.13,  22.71, 2575168, 2575090, 2574985, 2575110, 2575197,     110,    1.45,   0.282,    6.58,   28.68,    0.13
210015912,2009-12-27T23:47:42.179,-1756.27, 7976645,  27.13,  22.73, 2575163, 2575115, 2574987, 2575110, 2575192,     116,    1.13,   0.271,    6.59,   28.01,    0.08
210015913,2009-12-27T23:47:43.908,-1754.54, 7967442,  27.13,  22.77, 2575137, 2575131, 2574993, 2575115, 2575166,     126,    1.38,   0.254,    7.54,   31.03,    0.14
210015914,2009-12-27T23:47:45.637,-1752.81, 7958298,  27.13,  22.79, 2575171, 2575122, 2574996, 2575116, 2575201,     130,    1.43,   0.245,    7.87,   32.26,    0.13
210015915,2009-12-27T23:47:47.366,-1751.08, 7949124,  27.13,  22.82, 2575177, 2575157, 2574998, 2575117, 2575206,     136,    0.95,   0.235,    5.11,   27.29,    0.02
210015916,2009-12-27T23:47:49.347,-1749.10, 7938662,  27.13,  22.85, 2575171, 2575157, 2575021, 2575138, 2575200,     118,    1.17,   0.220,    5.49,   28.83,    0.10
210015917,2009-12-27T23:47:51.076,-1747.37, 7929518,  27.14,  22.88, 2575163, 2575175, 2575065, 2575180, 2575193,      95,    2.12,   0.207,    9.41,   34.25,    0.21
210015918,2009-12-27T23:47:52.805,-1745.65, 7920374,  27.13,  22.91, 2575141, 2575145, 2575035, 2575149, 2575171,      87,    1.56,   0.192,    7.00,   29.35,    0.17
210015919,2009-12-27T23:47:54.534,-1743.92, 7911291,  27.13,  22.94, 2575165, 2575130, 2575021, 2575134, 2575196,      99,    1.69,   0.176,    6.83,   29.60,    0.15
210015920,2009-12-27T23:47:56.263,-1742.19, 7902117,  27.13,  22.97, 2575175, 2575164, 2575041, 2575153, 2575206,     100,    1.44,   0.165,    9.93,   34.81,    0.15
210015921,2009-12-27T23:47:57.992,-1740.46, 7893003,  27.13,  23.00, 2575163, 2575151, 2575015, 2575126, 2575195,     118,    1.55,   0.152,    6.35,   31.11,    0.10
210015922,2009-12-27T23:47:59.721,-1738.73, 7883860,  27.13,  23.02, 2575167, 2575155, 2575028, 2575138, 2575199,     105,    1.51,   0.136,    8.07,   32.07,    0.10
210015923,2009-12-27T23:48:01.450,-1737.00, 7874776,  27.12,  23.06, 2575173, 2575080, 2574969, 2575078, 2575205,     113,    0.84,   0.117,    5.03,   27.05,    0.09
210015924,2009-12-27T23:48:03.179,-1735.27, 7865572,  27.12,  23.08, 2575171, 2575156, 2575023, 2575131, 2575204,     115,    1.51,   0.105,    7.28,   30.95,    0.07
210015925,2009-12-27T23:48:04.908,-1733.54, 7856459,  27.12,  23.11, 2575156, 2575146, 2575027, 2575135, 2575188,     116,    1.58,   0.093,    8.06,   32.62,    0.10
210015926,2009-12-27T23:48:06.637,-1731.81, 7847315,  27.12,  23.14, 2575163, 2575152, 2575069, 2575176, 2575197,      85,    2.64,   0.080,    9.14,   33.73,    0.24
210015927,2009-12-27T23:48:08.366,-1730.08, 7838201,  27.12,  23.17, 2575187, 2575162, 2575047, 2575154, 2575221,     101,    1.31,   0.067,    7.50,   31.51,    0.09
210015928,2009-12-27T23:48:10.347,-1728.10, 7827798,  27.11,  23.20, 2575165, 2575124, 2575023, 2575130, 2575199,      93,    1.09,   0.050,    7.34,   26.67,    0.01
210015929,2009-12-27T23:48:12.076,-1726.37, 7818655,  27.10,  23.23, 2575154, 2575123, 2574997, 2575103, 2575188,      99,    0.90,   0.032,    6.58,   28.72,    0.07
210015930,2009-12-27T23:48:13.805,-1724.65, 7809481,  27.09,  23.26, 2575165, 2575159, 2575073, 2575179, 2575200,      79,    2.44,   0.024,   11.22,   35.12,    0.21
210015931,2009-12-27T23:48:15.534,-1722.92, 7800337,  27.09,  23.29, 2575185, 2575165, 2575065, 2575171, 2575220,      86,    1.32,   0.019,    9.71,   31.46,    0.14
210015932,2009-12-27T23:48:17.263,-1721.19, 7791254,  27.08,  23.32, 2575184, 2575160, 2575056, 2575161, 2575218,      99,    1.45,   0.031,    7.93,   30.38,    0.11
210015933,2009-12-27T23:48:18.992,-1719.46, 7782110,  27.08,  23.35, 2575168, 2575159, 2575045, 2575150, 2575202,     102,    1.09,   0.043,    6.99,   30.89,    0.09
210015934,2009-12-27T23:48:20.721,-1717.73, 7772996,  27.07,  23.37, 2575191, 2575164, 2575068, 2575173, 2575224,      88,    1.70,   0.061,   11.41,   35.50,    0.16
210015935,2009-12-27T23:48:22.450,-1716.00, 7763883,  27.06,  23.41, 2575200, 2575149, 2575055, 2575161, 2575232,      84,    1.66,   0.086,    9.89,   31.53,    0.13
210015936,2009-12-27T23:48:24.179,-1714.27, 7754739,  27.05,  23.43, 2575179, 2575175, 2575057, 2575163, 2575211,      95,    1.59,   0.105,    9.72,   32.55,    0.09
210015937,2009-12-27T23:48:25.908,-1712.54, 7745655,  27.04,  23.46, 2575183, 2575145, 2575019, 2575125, 2575214,      95,    1.14,   0.116,    7.44,   30.83,    0.04
210015938,2009-12-27T23:48:27.637,-1710.81, 7736572,  27.03,  23.49, 2575179, 2575114, 2575028, 2575135, 2575210,      84,    1.40,   0.142,    7.90,   30.73,    0.12
210015939,2009-12-27T23:48:29.366,-1709.08, 7727428,  27.02,  23.52, 2575184, 2575153, 2575051, 2575159, 2575214,      82,    1.78,   0.164,    9.82,   32.70,    0.16
210015940,2009-12-27T23:48:31.347,-1707.10, 7716965,  27.01,  23.55, 2575182, 2575160, 2575052, 2575162, 2575211,      86,    1.66,   0.182,   10.30,   33.09,    0.17
210015941,2009-12-27T23:48:33.076,-1705.37, 7707851,  27.00,  23.58, 2575174, 2575148, 2575025, 2575136, 2575203,      96,    1.03,   0.204,    7.39,   29.89,    0.06
210015942,2009-12-27T23:48:34.805,-1703.65, 7698738,  26.98,  23.61, 2575189, 2575131, 2575020, 2575133, 2575218,      93,    1.02,   0.228,    8.82,   30.44,    0.08
210015943,2009-12-27T23:48:36.534,-1701.92, 7689654,  26.97,  23.64, 2575206, 2575144, 2575043, 2575159, 2575234,      91,    1.47,   0.253,    9.97,   30.75,    0.17
210015944,2009-12-27T23:48:38.263,-1700.19, 7680630,  26.95,  23.68, 2575186, 2575147, 2575027, 2575145, 2575213,      96,    1.04,   0.281,    8.58,   30.62,    0.11
210015945,2009-12-27T23:48:39.992,-1698.46, 7671427,  26.95,  23.71, 2575182, 2575134, 2575018, 2575138, 2575208,      96,    1.00,   0.296,    9.20,   31.71,    0.17
210015946,2009-12-27T23:48:41.721,-1696.73, 7662313,  26.96,  23.75, 2575231, 2575134, 2575029, 2575151, 2575258,      90,    1.25,   0.306,   10.19,   32.94,    0.21
210015947,2009-12-27T23:48:43.450,-1695.00, 7653229,  26.96,  23.78, 2575169, 2575125, 2575001, 2575124, 2575195,     103,    0.96,   0.318,    9.87,   30.14,    0.15
210015948,2009-12-27T23:48:45.179,-1693.27, 7644086,  26.97,  23.81, 2575175, 2575134, 2575015, 2575140, 2575201,     104,    1.11,   0.330,    8.73,   28.31,    0.18
210015949,2009-12-27T23:48:46.908,-1691.54, 7635092,  26.97,  23.85, 2575197, 2575120, 2575001, 2575128, 2575223,     105,    0.67,   0.348,    9.33,   30.59,    0.16
210015950,2009-12-27T23:48:48.637,-1689.81, 7625858,  26.97,  23.88, 2575206, 2575153, 2575038, 2575168, 2575231,     104,    1.32,   0.363,    9.86,   31.14,    0.22
210015951,2009-12-27T23:48:50.366,-1688.08, 7616924,  26.97,  23.90, 2575192, 2575077, 2574964, 2575094, 2575218,      95,    0.41,   0.365,    8.97,   28.99,    0.18
210015952,2009-12-27T23:48:52.346,-1686.10, 7606402,  26.97,  23.92, 2575185, 2575123, 2575009, 2575140, 2575211,      95,    1.12,   0.368,    9.39,   31.12,    0.21
210015953,2009-12-27T23:48:54.075,-1684.38, 7597348,  26.97,  23.95, 2575234, 2575093, 2574994, 2575124, 2575260,      85,    0.61,   0.369,    8.69,   29.82,    0.21
210015954,2009-12-27T23:48:55.804,-1682.65, 7588204,  26.97,  23.97, 2575202, 2575086, 2574974, 2575104, 2575227,     100,    1.00,   0.371,    8.02,   29.13,    0.20
210015955,2009-12-27T23:48:57.533,-1680.92, 7579121,  26.98,  23.99, 2575207, 2575102, 2575011, 2575141, 2575233,      81,    1.12,   0.368,   10.04,   32.79,    0.23
210015956,2009-12-27T23:48:59.262,-1679.19, 7570037,  26.98,  24.00, 2575229, 2575113, 2575001, 2575129, 2575255,      97,    0.98,   0.359,    9.00,   29.28,    0.20
210015957,2009-12-27T23:49:00.991,-1677.46, 7560983,  26.99,  24.01, 2575214, 2575104, 2575002, 2575127, 2575240,      94,    0.81,   0.341,    9.29,   30.23,    0.18
210015958,2009-12-27T23:49:02.720,-1675.73, 7551869,  27.00,  24.01, 2575193, 2575079, 2575005, 2575127, 2575219,      92,    0.94,   0.323,    9.61,   31.93,    0.14
210015959,2009-12-27T23:49:04.449,-1674.00, 7542756,  27.00,  24.02, 2575211, 2575080, 2575002, 2575122, 2575237,      84,    0.58,   0.309,    9.85,   31.93,    0.17
210015960,2009-12-27T23:49:06.178,-1672.27, 7533642,  27.01,  24.03, 2575214, 2575104, 2575009, 2575126, 2575240,      93,    1.05,   0.294,    9.67,   31.86,    0.16
210015961,2009-12-27T23:49:07.907,-1670.54, 7524468,  27.03,  24.04, 2575211, 2575153, 2575037, 2575151, 2575237,     103,    0.81,   0.272,    9.03,   30.09,    0.08
210015962,2009-12-27T23:49:09.636,-1668.81, 7515475,  27.04,  24.05, 2575261, 2575103, 2575032, 2575144, 2575288,      85,    0.86,   0.253,    9.40,   31.01,    0.08
210015963,2009-12-27T23:49:11.365,-1667.09, 7506361,  27.06,  24.06, 2575230, 2575081, 2575011, 2575121, 2575257,      89,    0.87,   0.227,    9.37,   32.84,    0.09
210015964,2009-12-27T23:49:13.346,-1665.10, 7495958,  27.08,  24.07, 2575188, 2575114, 2575029, 2575136, 2575216,      98,    0.84,   0.202,    8.25,   29.92,    0.00
210015965,2009-12-27T23:49:15.075,-1663.38, 7486844,  27.10,  24.09, 2575182, 2575092, 2575008, 2575113, 2575210,      80,    1.39,   0.185,    8.54,   31.58,    0.16
210015966,2009-12-27T23:49:16.804,-1661.65, 7477761,  27.11,  24.10, 2575199, 2575095, 2575028, 2575132, 2575228,      81,    1.08,   0.168,    9.83,   32.14,    0.08
210015967,2009-12-27T23:49:18.533,-1659.92, 7468677,  27.13,  24.11, 2575225, 2575141, 2575037, 2575139, 2575254,      97,    1.19,   0.150,    8.22,   30.14,    0.04
210015968,2009-12-27T23:49:20.262,-1658.19, 7459593,  27.14,  24.13, 2575206, 2575119, 2575038, 2575139, 2575236,      87,    0.95,   0.135,    7.91,   29.30,    0.02
210015969,2009-12-27T23:49:21.991,-1656.46, 7450480,  27.15,  24.13, 2575219, 2575098, 2575024, 2575124, 2575249,      86,    0.92,   0.115,    9.60,   32.53,    0.03
210015970,2009-12-27T23:49:23.720,-1654.73, 7441336,  27.17,  24.14, 2575180, 2575136, 2575039, 2575139, 2575210,      87,    1.65,   0.096,    9.15,   31.38,    0.13
210015971,2009-12-27T23:49:25.449,-1653.00, 7432312,  27.18,  24.16, 2575195, 2575121, 2575035, 2575134, 2575226,      92,    1.36,   0.082,    9.20,   30.60,    0.03
210015972,2009-12-27T23:49:27.178,-1651.27, 7423169,  27.19,  24.17, 2575240, 2575138, 2575052, 2575151, 2575271,      87,    1.42,   0.072,    9.94,   31.54,    0.06
210015973,2009-12-27T23:49:28.907,-1649.54, 7414115,  27.20,  24.19, 2575250, 2575163, 2575053, 2575151, 2575281,      94,    1.03,   0.067,    8.06,   30.31,    0.04
210015974,2009-12-27T23:49:30.636,-1647.81, 7405151,  27.20,  24.20, 2575200, 2575159, 2575041, 2575139, 2575231,      93,    0.65,   0.058,    7.42,   28.55,    0.15
210015975,2009-12-27T23:49:32.365,-1646.09, 7395947,  27.21,  24.21, 2575294, 2575124, 2575037, 2575134, 2575326,      81,    1.22,   0.045,    9.09,   30.30,    0.11
210015976,2009-12-27T23:49:34.346,-1644.10, 7385545,  27.22,  24.23, 2575191, 2575127, 2575040, 2575137, 2575222,      83,    0.90,   0.041,    7.90,   25.61,    0.01
210015977,2009-12-27T23:49:36.075,-1642.38, 7376491,  27.23,  24.24, 2575182, 2575101, 2575031, 2575128, 2575214,      84,    1.09,   0.034,    7.26,   23.71,    0.00
210015978,2009-12-27T23:49:37.804,-1640.65, 7367407,  27.24,  24.26, 2575196, 2575115, 2575035, 2575132, 2575228,      72,    0.79,   0.029,    8.90,   25.81,    0.07
210015979,2009-12-27T23:49:39.533,-1638.92, 7358353,  27.24,  24.27, 2575190, 2575119, 2575059, 2575156, 2575222,      58,    0.66,   0.032,    9.34,   26.23,    0.13
210015980,2009-12-27T23:49:41.262,-1637.19, 7349270,  27.25,  24.29, 2575169, 2575097, 2575037, 2575134, 2575201,      53,    1.83,   0.036,   10.12,   30.05,    0.23
210015981,2009-12-27T23:49:42.991,-1635.46, 7340216,  27.25,  24.30, 2575187, 2575124, 2575035, 2575132, 2575218,      78,    0.76,   0.040,    6.20,   22.83,    0.02
210015982,2009-12-27T23:49:44.720,-1633.73, 7331072,  27.26,  24.32, 2575206, 2575139, 2575056, 2575152, 2575237,      83,    1.55,   0.047,    9.42,   30.51,    0.08
210015983,2009-12-27T23:49:46.449,-1632.00, 7321989,  27.27,  24.33, 2575203, 2575141, 2575040, 2575137, 2575234,      96,    1.62,   0.055,    9.19,   30.20,    0.03
210015984,2009-12-27T23:49:48.178,-1630.27, 7312965,  27.26,  24.35, 2575195, 2575124, 2575055, 2575151, 2575226,      64,    1.75,   0.053,   10.74,   33.06,    0.16